092  
ASUS46 KSEW 180010  
RWRWA  
 
WASHINGTON REGIONAL WEATHER ROUNDUP  
NATIONAL WEATHER SERVICE SEATTLE WA  
500 PM PDT WED OCT 17 2018  
 
NOTE:"FAIR" INDICATES FEW OR NO CLOUDS BELOW 12,000 FEET WITH NO  
SIGNIFICANT WEATHER AND/OR S TO VISIBILITY
.  
 
WAZ507-509-555>559-180100-  
SEATTLE, TACOMA, EVERETT, AND VICINITY  
 
CITY SKY/WX TMP DP RH WIND PRES REMARKS
 
EVERETT SUNNY 68 45 43 NW3 30.10F  
6HR MIN TEMP: 57; 6HR MAX TEMP: 69;  
 
BOEING FIELD SUNNY 68 39 34 VRB5 30.08F  
6HR MIN TEMP: 50; 6HR MAX TEMP: 70;  
 
RENTON SUNNY 71 43 36 NW3 30.07F  
6HR MIN TEMP: 48; 6HR MAX TEMP: 71;  
 
SEATAC AIRPORT MOSUNNY 70 47 43 W5 30.09F  
6HR MIN TEMP: 57; 6HR MAX TEMP: 70;  
 
JBLM-MCCHORD SUNNY 71 53 53 N5 30.09F  
6HR MIN TEMP: 53; 6HR MAX TEMP: 73;  
 
PUYALLUP FAIR 72 50 46 CALM 30.09F  
BREMERTON SUNNY 71 51 49 SW3 30.09F  
6HR MIN TEMP: 62; 6HR MAX TEMP: 76;  
 
JBLM-FT LEWIS SUNNY 70 50 49 W5 30.08F  
TACOMA NARROWS SUNNY 68 46 45 CALM 30.10S  
6HR MIN TEMP: 48; 6HR MAX TEMP: 68;  
 

 
 
WAZ001-503-506-510-514-515-180100-  
NORTH INTERIOR  
 
CITY SKY/WX TMP DP RH WIND PRES REMARKS
 
BELLINGHAM SUNNY 65 47 52 W5 30.10S  
6HR MIN TEMP: 57; 6HR MAX TEMP: 70;  
 
FRIDAY HARBOR SUNNY 64 45 49 CALM 30.11F  
6HR MIN TEMP: 59; 6HR MAX TEMP: 69;  
 
EASTSOUND SUNNY 57 50 77 NW5 30.10F  
PORT ANGELES SUNNY 63 45 51 CALM 30.11F  
6HR MIN TEMP: 58; 6HR MAX TEMP: 65;  
 
EDIZ HOOK FAIR 55 46 70 CALM 30.11S  
6HR MIN TEMP: 53; 6HR MAX TEMP: 56;  
 
PORT TOWNSEND FAIR 59 48 67 CALM 30.09F  
NAS WHIDBEY MOSUNNY 58 49 72 W5 30.14F  
6HR MIN TEMP: 58; 6HR MAX TEMP: 66;  
 
ARLINGTON SUNNY 69 52 54 CALM 30.09F  
6HR MIN TEMP: 53; 6HR MAX TEMP: 71;  
 
BURLINGTON SUNNY 64 46 52 W6 30.09F  

 
 
WAZ020-022-039-040-504-511-512-180100-  
SOUTHWEST INTERIOR  
 
CITY SKY/WX TMP DP RH WIND PRES REMARKS
 
SHELTON SUNNY 72 40 31 SE3 30.06F  
6HR MIN TEMP: 57; 6HR MAX TEMP: 72;  
 
OLYMPIA SUNNY 71 41 33 N3 30.09F  
6HR MIN TEMP: 47; 6HR MAX TEMP: 72;  
 
CHEHALIS FAIR 72 52 49 CALM 30.08F  
KELSO SUNNY 74 45 35 CALM 30.07F  
6HR MIN TEMP: 53; 6HR MAX TEMP: 75;  
 
VANCOUVER SUNNY 73 39 29 S3 30.06F  
6HR MIN TEMP: 60; 6HR MAX TEMP: 74;  
 
SCAPPOOSE, OR SUNNY 77 34 21 S3 30.05F  
6HR MIN TEMP: 60; 6HR MAX TEMP: 78;  
 
PORTLAND, OR MOSUNNY 73 39 29 SE6 30.07F  
6HR MIN TEMP: 61; 6HR MAX TEMP: 75;  
 

 
 
WAZ021-516-517-180100-  
WASHINGTON COAST  
 
CITY SKY/WX TMP DP RH WIND PRES REMARKS
 
FORKS SUNNY 70 36 28 W5 30.09F  
6HR MIN TEMP: 62; 6HR MAX TEMP: 74;  
 
HOQUIAM SUNNY 71 48 43 E5 30.07S  
6HR MIN TEMP: 57; 6HR MAX TEMP: 75;  
 
ASTORIA, OR SUNNY 70 52 52 N8 30.06S  
6HR MIN TEMP: 65; 6HR MAX TEMP: 76;  
 

 
 
WAZ019-023-024-040-567>569-180100-  
CASCADE MOUNTAINS AND COLUMBIA GORGE  
 
CITY SKY/WX TMP DP RH WIND PRES REMARKS
 
STAMPEDE PASS SUNNY 55 30 38 VRB3 30.21F  
6HR MIN TEMP: 51; 6HR MAX TEMP: 58;  
 
TROUTDALE, OR SUNNY 70 37 29 E17 30.06F  
6HR MIN TEMP: 64; 6HR MAX TEMP: 72;  
 
HOOD RIVER, OR CLEAR 66 34 30 CALM 30.16F  
THE DALLES, OR SUNNY 69 34 27 NE9 30.16F  
6HR MIN TEMP: 50; 6HR MAX TEMP: 71;  
 

 
 
WAZ026-027-041>044-520-521-180100-  
EAST SLOPES  
 
CITY SKY/WX TMP DP RH WIND PRES REMARKS
 
OMAK CLEAR 65 35 33 S8 30.18F  
6HR MIN TEMP: 48; 6HR MAX TEMP: 66;  
 
WENATCHEE SUNNY 63 31 30 E7 30.18F  
6HR MIN TEMP: 49; 6HR MAX TEMP: 64;  
 
ELLENSBURG SUNNY 67 34 29 E6 30.18F  
6HR MIN TEMP: 50; 6HR MAX TEMP: 68;  
 
YAKIMA SUNNY 67 31 26 S3 30.18F  
6HR MIN TEMP: 54; 6HR MAX TEMP: 68;  
 
SUNNYSIDE ARPT CLEAR 65 40 39 E6 30.19F  
6HR MIN TEMP: 51; 6HR MAX TEMP: 66;  
 

 
 
WAZ028-034-035-180100-  
COLUMBIA BASIN  
 
CITY SKY/WX TMP DP RH WIND PRES REMARKS
 
EPHRATA CLEAR 67 31 26 S3 30.18F  
6HR MIN TEMP: 56; 6HR MAX TEMP: 67;  
 
MOSES LAKE CLEAR 66 35 31 SW6 30.19F  
6HR MIN TEMP: 55; 6HR MAX TEMP: 68;  
 
PASCO CLEAR 62 39 42 CALM 30.20F  
6HR MIN TEMP: 50; 6HR MAX TEMP: 64;  
 
RICHLAND ARPT CLEAR 64 38 38 E3 30.20F  
6HR MIN TEMP: 52; 6HR MAX TEMP: 64;  
 
HERMISTON, OR SUNNY 64 39 39 NE5 30.18F  
6HR MIN TEMP: 51; 6HR MAX TEMP: 66;  
 

 
 
WAZ036>038-180100-  
NORTHEAST WASHINGTON  
 
CITY SKY/WX TMP DP RH WIND PRES REMARKS
 
SPOKANE GEIGER PTCLDY 64 32 30 CALM 30.20F  
6HR MIN TEMP: 49; 6HR MAX TEMP: 64;  
 
SPOKANE FELTS CLEAR 65 33 30 CALM 30.20F  
6HR MIN TEMP: 50; 6HR MAX TEMP: 65;  
 
FAIRCHILD AFB CLEAR 63 30 29 CALM 30.20F  
COEURDALENE,ID CLEAR 63 36 36 CALM 30.20F  
6HR MIN TEMP: 51; 6HR MAX TEMP: 66;  
 
DEER PARK CLEAR 64 33 31 CALM 30.20F  
6HR MIN TEMP: 53; 6HR MAX TEMP: 64;  
 

 
 
WAZ029>033-180100-  
SOUTHEAST WASHINGTON  
 
CITY SKY/WX TMP DP RH WIND PRES REMARKS
 
PULLMAN CLEAR 64 33 31 W7 30.22F HAZE  
6HR MIN TEMP: 57; 6HR MAX TEMP: 68;  
 
LEWISTON, ID CLEAR 64 34 32 CALM 30.19F  
6HR MIN TEMP: 50; 6HR MAX TEMP: 65;  
 
WALLA WALLA CLEAR 61 35 37 W3 30.19F  
6HR MIN TEMP: 53; 6HR MAX TEMP: 62;  
 
PENDLETON, OR SUNNY 63 32 31 NW3 30.18F  
6HR MIN TEMP: 54; 6HR MAX TEMP: 64;  
 

 
 
 
CLICK HERE TO GO TO PREVIOUS BULLETINS.

The Nexlab WA Page Main Text Page